Home > Weather > Abbotsford > Past weeks

Flag for Canada Weather for the Past 2 Weeks in Abbotsford, British Columbia, Canada

Now
50 °F

Light rain. Cloudy.


Feels Like: 47 °F
Forecast: 53 / 62 °F
Wind: 7 mph from Southwest

Location: Abbotsford

Current Time: May 4, 2016 at 1:00:31 PM

Latest Report: May 4, 2016 at 11:00 AM


Visibility: 8 mi

Pressure: 30.08 "Hg

Humidity: 94%

Dew Point: 48 °F

Location of AbbotsfordLocation

Historic Weather in Abbotsford — Graph

°F

Abbotsford Temperature Yesterday

Maximum temperature yesterday: 72 °F (at 2:00 PM)
Minimum temperature yesterday: 55 °F (at 6:00 AM)
Average temperature yesterday: 63 °F

High & Low Weather Summary for the Past Weeks

 TemperatureHumidityPressure
High86 °F (May 2, 5:00 PM)100% (Apr 22, 3:00 AM)30.37 "Hg (Apr 22, 3:00 AM)
Low37 °F (Apr 26, 6:00 AM)22% (May 2, 5:00 PM)29.59 "Hg (Apr 22, 4:00 AM)
Average57 °F72%30.00 "Hg
* Reported Apr 19 11:00 AM — May 4 11:00 AM, Abbotsford, Weather by CustomWeather, © 2016

Note: Actual official high and low records may vary slightly from our data, if they occured in-between our weather recording intervals... More about our weather records

Advertising

Abbotsford Weather History for the Previous 24 Hours

Scroll right to see more
 ConditionsComfort  
Time TempWeatherWind HumidityBarometerVisibility
11:00 AM
Wed, May 4
50 °FLight rain. Cloudy.7 mph94%30.08 "Hg8 mi
10:00 AM50 °FLight rain. Cloudy.8 mph94%30.08 "Hg8 mi
9:00 AM50 °FLight rain. Overcast.9 mph94%30.07 "Hg15 mi
8:00 AM52 °FLight rain. Cloudy.8 mph88%30.07 "Hg10 mi
7:00 AM52 °FLight rain. Overcast.9 mph88%30.06 "Hg10 mi
6:00 AM54 °FOvercast.8 mph88%30.06 "Hg10 mi
5:00 AM54 °FOvercast.6 mph88%30.05 "Hg10 mi
4:00 AM55 °FMostly cloudy.8 mph82%30.06 "Hg15 mi
3:00 AM55 °FMostly cloudy.7 mph82%30.06 "Hg10 mi
2:00 AM55 °FOvercast.10 mph82%30.08 "Hg15 mi
1:00 AM55 °FOvercast.12 mph88%30.08 "Hg15 mi
12:00 AM57 °FMostly cloudy.8 mph88%30.07 "Hg15 mi
11:00 PM
Tue, May 3
59 °FMostly cloudy.5 mph82%30.07 "Hg15 mi
10:00 PM59 °FMostly cloudy.5 mph82%30.06 "Hg15 mi
9:00 PM61 °FMore clouds than sun.8 mph77%30.05 "Hg20 mi
8:00 PM63 °FMostly cloudy.7 mph73%30.04 "Hg30 mi
7:00 PM64 °FMore clouds than sun.10 mph64%30.03 "Hg30 mi
6:00 PM66 °FMostly cloudy.10 mph60%30.03 "Hg30 mi
5:00 PM68 °FMore clouds than sun.12 mph60%30.01 "Hg30 mi
4:00 PM68 °FMostly cloudy.13 mph56%30.01 "Hg30 mi
3:00 PM68 °FCloudy.15 mph60%30.03 "Hg30 mi
2:00 PM72 °FBroken clouds.12 mph57%30.01 "Hg30 mi
1:00 PM70 °FBroken clouds.7 mph60%30.01 "Hg30 mi
Weather by CustomWeather, © 2016

See weather overviewHow to use our weather pages